Regional Weather Roundup
Issued by NWS Green Bay, WI

Home | Current Version | Previous Version | Text Only | Print | Product List | Glossary On
Versions: 1 2 3 4 5 6 7 8 9 10 11 12 13 14 15 16 17 18 19 20 21 22 23 24 25 26 27 28 29 30 31 32 33 34 35 36 37 38 39 40 41 42 43 44 45 46 47 48 49 50
000
ASUS43 KGRB 251111
RWRGRB

NORTH-CENTRAL AND NORTHEAST WISCONSIN REGIONAL WEATHER ROUNDUP
NATIONAL WEATHER SERVICE GREEN BAY WI
600 AM CDT SUN SEP 25 2016

WIZ005-009-010>012-018-019-251200-
NORTH CENTRAL WISCONSIN

CITY           SKY/WX    TMP DP  RH WIND       PRES   REMARKS
IRONWOOD       CLOUDY    61  57  87 SE10G16   29.98F
MANITOWISH WTR CLOUDY    58  57  97 SE9       30.03F
ARBOR VITAE    CLOUDY    59  56  87 SE8       30.04F
EAGLE RIVER    CLOUDY    58  51  79 S7        30.06F
LAND O LAKES   CLOUDY    58  53  84 S7        30.08F
RHINELANDER    CLOUDY    59  56  89 SE7       30.06F
PHILLIPS       CLOUDY    60  58  94 SE6       30.00F
ANTIGO         MOCLDY    56  55  95 SE3       30.08S
TOMAHAWK       MOCLDY    56  54  91 SE5       30.05F
MERRILL        CLOUDY    58  56  94 SE3       30.06F
$$

WIZ013-073-251200-
NORTHEAST WISCONSIN

CITY           SKY/WX    TMP DP  RH WIND       PRES   REMARKS
IRON MOUNTAIN  CLOUDY    58  53  84 SE8       30.09F
MARINETTE      CLOUDY    63  57  81 S8        30.11F
OCONTO         CLOUDY    62  57  84 SE8       30.09F
$$

WIZ017-030-035>037-045-251200-
CENTRAL WISCONSIN

CITY           SKY/WX    TMP DP  RH WIND       PRES   REMARKS
MEDFORD        CLOUDY   N/A N/A N/A SE7       30.02F
WAUSAU         MOCLDY    58  55  90 SE8       30.04F
MOSINEE        PTCLDY    52  52 100 MISG      30.05F
MARSHFIELD     CLOUDY    60  57  89 SE9       30.02F
WISC RAPIDS    MOCLDY    59  59 100 SE6       30.04F
STEVENS POINT  PTCLDY    56  56 100 E7        30.05F
WAUPACA        CLOUDY    58  57  97 CALM      30.07F
SHAWANO        PTCLDY    60  56  89 SE5       30.09S
CLINTONVILLE   NOT AVBL
WAUTOMA        MOCLDY    58  57  97 E5        30.06F
$$

WIZ038-039-048-051-251200-
FOX VALLEY

CITY           SKY/WX    TMP DP  RH WIND       PRES   REMARKS
NWS GREEN BAY  CLOUDY    61  60  97 SE9       30.09F
APPLETON       NOT AVBL
OSHKOSH        CLOUDY    63  60  90 SE9       30.07S
FOND DU LAC    PTCLDY    64  61  90 SE8       30.07F
$$

WIZ022-050-052-251200-
EAST CENTRAL WISCONSIN

CITY           SKY/WX    TMP DP  RH WIND       PRES   REMARKS
EPHRAIM        CLOUDY    61  56  84 S7        30.12F
WASHINGTON ISL CLOUDY    61  54  77 S3        30.12F
STURGEON BAY   CLOUDY    62  57  83 SE10      30.12F
MANITOWOC      CLOUDY    63  59  87 SE8       30.12S
SHEBOYGAN      PTCLDY    64  60  87 SE7       30.10S
$$

LMZ563-521-522-541>543-251200-
LAKESHORE

STATION/POSITION TIME  TEMP    WIND        PRES    VSBY  WAVE
                       AIR SEA DIR/SP/G                  HT/PER
                 (UTC) (F)     (DEG/KT/KT) (MB)    (MI)  (FT/S)
SHEBOYGAN LKSHOR 1100   64     140/ 14/ 15 1018.8F
KEWAUNEE LKSHORE 1000   64     160/ 15/ 17 1019.5F
NORTHPORT PIER   1000   63     150/ 11/ 16 1020.7R
N MID LAKE BUOY  1050   62 67  170/ 16/ 19 1020.3S         3/ 5
S GREEN BAY BUOY 1000   63 66  140/ 10/ 14 1019.1F
CHAMBERS ISLAND  1000   63     130/  4/ 10 1020.0S
MENOMINEE LKSHOR 1000   63     150/ 15/ 18 1018.9F
$$




USA.gov is the U.S. government's official web portal to all federal, state and local government web resources and services.